Weather History for Hoquiam, WA

Change the Weather History Date:

Friday, October 4, 2013

  Actual Average Record
Temperature  
Mean Temperature 53 °F 55 °F  
Max Temperature 64 °F 63 °F 81 °F (1966)
Min Temperature 41 °F 47 °F 34 °F (2009)
Degree Days  
Heating Degree Days 12 10  
Month to date heating degree days 55 38  
Cooling Degree Days 0 0  
Month to date cooling degree days 0 0  
Year to date cooling degree days 20 23  
Growing Degree Days 2 (Base 50)    
Moisture  
Dew Point 45 °F    
Average Humidity 80    
Maximum Humidity 100    
Minimum Humidity 60    
Precipitation  
Precipitation 0.00 in 0.13 in 1.24 in (1990)
Month to date precipitation 1.06 0.49  
Year to date precipitation 42.93 40.38  
Sea Level Pressure  
Sea Level Pressure 30.44 in    
Wind  
Wind Speed 6 mph (ENE)    
Max Wind Speed 14 mph    
Max Gust Speed 16 mph    
Visibility 4 miles    
Events Fog    
T = Trace of Precipitation, MM = Missing Value Source: NWS Daily Summary

Daily Weather History Graph

Daily Weather History Graph

Search for Another Location

Airport:

Trip Planner

Search our weather history database for the weather conditions in past years. The results will help you decide how hot, cold, wet, or windy it might be!

Date:

Astronomy

Oct. 04, 2013 Rise Set
Actual Time 7:19 AM PDT 6:48 PM PDT
Civil Twilight 6:48 AM PDT 7:19 PM PDT
Nautical Twilight 6:13 AM PDT 7:54 PM PDT
Astronomical Twilight 5:37 AM PDT 8:29 PM PDT
Moon 7:01 AM PDT (10/4) 6:31 PM PDT (10/4)
Length of Visible Light 12h 30m
Length of Day
11h 29m
Waning Crescent, 0% of the Moon is Illuminated
Oct 4
Waning Crescent
Oct 4
New
Oct 11
First Quarter
Oct 18
Full
Oct 26
Last Quarter

Hourly Weather History & Observations

Time (PDT) Temp. Windchill Dew Point Humidity Pressure Visibility Wind Dir Wind Speed Gust Speed Precip Events Conditions
12:30 AM 44.6 °F 41.4 °F 44.6 °F 100% 30.45 in 2.5 mi ENE 5.8 mph - N/A   Scattered Clouds
12:33 AM 46.4 °F 42.9 °F 44.6 °F 93% 30.45 in 1.2 mi ENE 6.9 mph - N/A   Mostly Cloudy
12:36 AM 46.4 °F 42.9 °F 44.6 °F 93% 30.45 in 0.8 mi ENE 6.9 mph - N/A   Mist
12:53 AM 45.0 °F 43.5 °F 45.0 °F 100% 30.46 in 1.8 mi NE 3.5 mph - N/A   Overcast
1:00 AM 42.8 °F 41.1 °F 42.8 °F 100% 30.45 in 3.0 mi NE 3.5 mph - N/A   Mostly Cloudy
1:27 AM 44.6 °F 42.2 °F 42.8 °F 93% 30.45 in 1.8 mi NE 4.6 mph - N/A   Mostly Cloudy
1:39 AM 44.6 °F 42.2 °F 42.8 °F 93% 30.46 in 2.5 mi ENE 4.6 mph - N/A   Mostly Cloudy
1:44 AM 42.8 °F 39.3 °F 42.8 °F 100% 30.46 in 3.0 mi ENE 5.8 mph - N/A   Scattered Clouds
1:53 AM 43.0 °F 39.5 °F 43.0 °F 100% 30.47 in 1.2 mi ENE 5.8 mph - N/A   Scattered Clouds
1:56 AM 42.8 °F 41.1 °F 42.8 °F 100% 30.46 in 0.8 mi ENE 3.5 mph - N/A   Mist
2:01 AM 44.6 °F - 42.8 °F 93% 30.46 in 1.0 mi Calm Calm - N/A   Mist
2:08 AM 42.8 °F 38.6 °F 42.8 °F 100% 30.46 in 3.0 mi ENE 6.9 mph - N/A   Mostly Cloudy
2:13 AM 42.8 °F 38.0 °F 42.8 °F 100% 30.46 in 1.8 mi ENE 8.1 mph - N/A   Mostly Cloudy
2:21 AM 44.6 °F 40.7 °F 42.8 °F 93% 30.46 in 0.2 mi ENE 6.9 mph - N/A Fog Fog
2:43 AM 42.8 °F 40.1 °F 42.8 °F 100% 30.46 in 0.5 mi ENE 4.6 mph - N/A Fog Fog
2:53 AM 43.0 °F 39.5 °F 43.0 °F 100% 30.47 in 0.5 mi NE 5.8 mph - N/A Fog Fog
3:07 AM 42.8 °F 38.0 °F 42.8 °F 100% 30.46 in 1.0 mi ENE 8.1 mph - N/A   Mist
3:24 AM 42.8 °F 37.5 °F 42.8 °F 100% 30.45 in 0.8 mi ENE 9.2 mph - N/A   Mist
3:53 AM 43.0 °F 38.2 °F 43.0 °F 100% 30.46 in 0.2 mi ENE 8.1 mph - N/A Fog Fog
4:14 AM 42.8 °F 38.0 °F 42.8 °F 100% 30.45 in 0.5 mi ENE 8.1 mph - N/A Fog Fog
4:23 AM 42.8 °F 38.0 °F 42.8 °F 100% 30.45 in 0.2 mi ENE 8.1 mph - N/A Fog Fog
4:53 AM 43.0 °F 39.5 °F 43.0 °F 100% 30.46 in 0.2 mi ENE 5.8 mph - N/A Fog Fog
5:49 AM 42.8 °F 38.0 °F 42.8 °F 100% 30.44 in 0.5 mi ENE 8.1 mph - N/A Fog Fog
5:53 AM 42.1 °F 37.7 °F 42.1 °F 100% 30.46 in 0.5 mi ENE 6.9 mph - N/A Fog Fog
6:44 AM 42.8 °F 38.6 °F 41.0 °F 93% 30.45 in 1.8 mi ENE 6.9 mph - N/A   Overcast
6:53 AM 42.1 °F 37.1 °F 41.0 °F 96% 30.46 in 0.8 mi ENE 8.1 mph - N/A   Overcast
7:09 AM 42.8 °F 41.1 °F 42.8 °F 100% 30.45 in 1.5 mi NE 3.5 mph - N/A   Overcast
7:13 AM 41.0 °F 39.0 °F 41.0 °F 100% 30.45 in 3.0 mi ENE 3.5 mph - N/A   Mostly Cloudy
7:28 AM 42.8 °F 39.3 °F 42.8 °F 100% 30.45 in 7.0 mi NE 5.8 mph - N/A   Scattered Clouds
7:53 AM 43.0 °F 40.3 °F 42.1 °F 97% 30.46 in 7.0 mi NE 4.6 mph - 0.01 in   Partly Cloudy
8:53 AM 44.1 °F 39.0 °F 44.1 °F 100% 30.46 in 7.0 mi ENE 9.2 mph - N/A   Mostly Cloudy
9:08 AM 44.6 °F 40.2 °F 44.6 °F 100% 30.45 in 6.0 mi ENE 8.1 mph - N/A   Scattered Clouds
9:53 AM 46.9 °F - 46.0 °F 97% 30.46 in 7.0 mi East 9.2 mph - N/A   Clear
10:00 AM 46.4 °F 41.9 °F 44.6 °F 93% 30.45 in 6.0 mi East 9.2 mph - N/A   Partly Cloudy
10:53 AM 48.9 °F - 46.9 °F 93% 30.45 in 9.0 mi East 10.4 mph - N/A   Clear
11:53 AM 52.0 °F - 48.0 °F 86% 30.46 in 9.0 mi East 9.2 mph - N/A   Clear
12:53 PM 57.9 °F - 48.0 °F 70% 30.44 in 10.0 mi East 9.2 mph - N/A   Clear
1:53 PM 61.0 °F - 46.9 °F 60% 30.43 in 10.0 mi East 6.9 mph - N/A   Clear
2:53 PM 63.0 °F - 48.0 °F 58% 30.40 in 10.0 mi East 5.8 mph - N/A   Clear
3:53 PM 63.0 °F - 48.9 °F 60% 30.40 in 10.0 mi East 4.6 mph - N/A   Clear
4:53 PM 62.1 °F - 48.9 °F 62% 30.39 in 10.0 mi WSW 8.1 mph - N/A   Clear
5:53 PM 57.9 °F - 53.1 °F 84% 30.38 in 10.0 mi SW 4.6 mph - N/A   Clear
6:53 PM 55.9 °F - 51.1 °F 84% 30.38 in 10.0 mi West 4.6 mph - N/A   Clear
7:53 PM 55.0 °F - 51.1 °F 86% 30.38 in 10.0 mi Calm Calm - N/A   Partly Cloudy
8:53 PM 53.1 °F - 50.0 °F 89% 30.38 in 10.0 mi Calm Calm - N/A   Clear
9:53 PM 48.9 °F - 46.9 °F 93% 30.38 in 5.0 mi Calm Calm - N/A   Clear
10:53 PM 48.9 °F - 48.0 °F 97% 30.38 in 5.0 mi NE 3.5 mph - N/A   Mostly Cloudy
11:25 PM 48.2 °F - 46.4 °F 93% 30.36 in 2.5 mi Calm Calm - N/A   Partly Cloudy
11:53 PM 48.0 °F - 46.9 °F 96% 30.37 in 2.0 mi ENE 3.5 mph - N/A   Clear